Regional Weather Roundup
Issued by NWS

Home | Current Version | Previous Version | Graphics & Text | Print | Product List | Glossary On
Versions: 1 2 3 4 5 6 7 8 9 10 11 12 13 14 15 16 17 18 19 20 21 22 23 24 25 26 27 28 29 30 31 32 33 34 35 36 37 38 39 40 41 42 43 44 45 46 47 48 49 50
900
ASUS43 KBIS 031410
RWRND

NORTH DAKOTA REGIONAL WEATHER ROUNDUP
NATIONAL WEATHER SERVICE BISMARCK ND
800 AM CST SAT DEC 03 2016

NOTE: "FAIR" INDICATES FEW OR NO CLOUDS BELOW 12,000 FEET WITH NO
SIGNIFICANT WEATHER AND/OR OBSTRUCTIONS TO VISIBILITY.


NDZ001>003-009>011-017-031500-
NORTHWEST NORTH DAKOTA

CITY           SKY/WX    TMP DP  RH WIND       PRES   REMARKS
WILLISTON      CLOUDY    20  15  81 S5        29.84F WCI  13
MINOT          CLEAR     24  20  84 S8        29.91F WCI  15
MINOT AFB      CLEAR     21  19  89 SE8       29.90F WCI  12
$$

NDZ018>021-031>035-040>046-031500-
SOUTHWEST NORTH DAKOTA

CITY           SKY/WX    TMP DP  RH WIND       PRES   REMARKS
BISMARCK       LGT SNOW  25  25 100 E7        30.01S FOG     WCI  17
DICKINSON      CLEAR     15  12  88 S10       29.86F WCI   2
GARRISON         N/A     24  22  91 S14       29.93F WCI  12
HETTINGER ARPT CLEAR     17  15  92 SE8       29.91F WCI   7
$$

NDZ004>008-012>016-024-026-027-054-031500-
NORTHEAST NORTH DAKOTA

CITY           SKY/WX    TMP DP  RH WIND       PRES   REMARKS
GRAND FORKS    CLOUDY    27  20  75 S12       30.17F WCI  17
GRND FRKS AFB  CLOUDY    27  21  80 S12       30.16F WCI  16
DEVILS LAKE    CLOUDY    27  26  96 S20       30.05F WCI  13
$$

NDZ022-023-025-028>030-036>039-047>053-031500-
SOUTHEAST NORTH DAKOTA

CITY           SKY/WX    TMP DP  RH WIND       PRES   REMARKS
FARGO          CLOUDY    27  20  75 S10       30.21F WCI  17
JAMESTOWN      CLOUDY    27  25  92 S14       30.09F WCI  16
$$





USA.gov is the U.S. government's official web portal to all federal, state and local government web resources and services.